Location: Houghton
(47.1220°N, 88.5690°W)
Time: 12:18:22
(UTC-05:00)

Amateur Radio Satellites - All Passes

Search period start: 14 December 2017 11:48
Search period end: 15 December 2017 11:48
Location: Houghton, 47.1220°N, 88.5690°W

Satellite Date Start Highest point End Downlink Frequencies (MHz)
Time Altitude Azimuth
NANOSAT C BR1 14 Dec 11:51:42 11:55:50 67° 74° (ENE) 12:00:00 145.865
nSIGHT-1 14 Dec 11:52:09 11:54:14 16° 137° (SE) 11:56:20 .
ESTCUBE 1 14 Dec 11:53:37 11:57:43 32° 96° (E) 12:01:47 437.505/2401.250
AIST 2D 14 Dec 12:03:40 12:06:32 23° 266° (W) 12:09:25 435.315
EO-79 14 Dec 12:06:43 12:10:54 76° 257° (WSW) 12:15:07 145.935-145.965
BUGSAT 1 14 Dec 12:08:46 12:11:57 23° 65° (ENE) 12:15:07 437.445
LO-87 14 Dec 12:17:52 12:21:25 82° 103° (ESE) 12:24:57 145.935 - 145.965
POLYITAN 1 14 Dec 12:29:53 12:33:53 43° 261° (W) 12:37:54 437.675
AO-91 14 Dec 12:30:33 12:34:20 24° 66° (ENE) 12:37:52 145.960
ISS 14 Dec 12:31:44 12:34:35 27° 141° (SE) 12:37:26 437.550
Oscar 19 14 Dec 12:32:54 12:37:18 30° 64° (ENE) 12:41:45 437.125/150
SPROUT 14 Dec 12:36:40 12:40:02 22° 93° (E) 12:43:22 437.525
NO-84 14 Dec 12:44:14 12:47:36 37° 22° (NNE) 12:51:14 435.350 FM
AO-7 14 Dec 12:56:00 13:01:17 19° 41° (NE) 13:06:35 .
QB50P2 14 Dec 12:56:32 12:59:47 22° 267° (W) 13:03:03 145.880/145.840
DUCHIFAT 1 14 Dec 13:01:53 13:05:24 26° 265° (W) 13:08:55 145.980
YUBILEINY 14 Dec 13:04:46 13:11:15 22° 57° (ENE) 13:17:40 435.215
RS-15 14 Dec 13:08:24 13:12:36 12° 91° (E) 13:16:48 29.354- 29.394
Gurwin Techsat 1B 14 Dec 13:11:07 13:16:11 47° 68° (ENE) 13:21:16 435.225
nSIGHT-1 14 Dec 13:26:50 13:30:03 89° 150° (SSE) 13:33:18 .
VELOX 1 14 Dec 13:28:39 13:32:55 45° 99° (E) 13:37:08 145.980
NANOSAT C BR1 14 Dec 13:30:06 13:31:59 13° 271° (W) 13:33:53 145.865
ESTCUBE 1 14 Dec 13:30:28 13:34:27 30° 294° (WNW) 13:38:25 437.505/2401.250
BUGSAT 1 14 Dec 13:43:25 13:47:08 35° 262° (W) 13:50:51 437.445
ITAMSAT 1 14 Dec 13:48:09 13:49:22 11° 51° (NE) 13:50:35 435.822/435.867
AO-91 14 Dec 14:05:57 14:10:37 44° 261° (W) 14:14:52 145.960
ISS 14 Dec 14:07:37 14:10:53 63° 339° (NNW) 14:14:11 437.550
UKube-1 14 Dec 14:11:07 14:14:08 18° 92° (E) 14:17:07 .
Oscar 19 14 Dec 14:11:38 14:16:28 42° 262° (W) 14:21:22 437.125/150
SPROUT 14 Dec 14:12:06 14:16:02 38° 291° (WNW) 14:19:58 437.525
NO-84 14 Dec 14:21:20 14:25:01 54° 219° (SW) 14:28:56 435.350 FM
DX 1 14 Dec 14:25:25 14:29:32 39° 98° (E) 14:33:36 434.975-435.025
AO-7 14 Dec 14:44:22 14:52:30 64° 64° (ENE) 15:00:43 .
M-CUBED/EXP-1 PRIME 14 Dec 14:46:59 14:51:14 52° 65° (ENE) 14:55:43 437.505
Gurwin Techsat 1B 14 Dec 14:51:52 14:56:20 27° 266° (W) 15:00:50 435.225
YUBILEINY 14 Dec 15:00:39 15:09:33 84° 81° (E) 15:18:22 435.215
nSIGHT-1 14 Dec 15:03:29 15:06:30 36° 353° (N) 15:09:32 .
VELOX 1 14 Dec 15:05:43 15:09:04 22° 297° (WNW) 15:12:25 145.980
50 SAT 14 Dec 15:07:21 15:10:25 52° 287° (WNW) 15:13:29 437.505
RS-15 14 Dec 15:10:19 15:22:06 55° 114° (ESE) 15:33:46 29.354- 29.394
MOZHAYETS 4 14 Dec 15:22:32 15:26:21 25° 94° (E) 15:30:08
ITAMSAT 1 14 Dec 15:22:41 15:27:48 61° 71° (ENE) 15:32:57 435.822/435.867
SO-50 14 Dec 15:32:45 15:35:53 19° 112° (ESE) 15:39:03 436.795
BEESAT 14 Dec 15:41:16 15:45:13 25° 94° (E) 15:49:09 436.000
ISS 14 Dec 15:44:40 15:47:44 35° 359° (N) 15:50:48 437.550
UKube-1 14 Dec 15:46:15 15:50:25 49° 290° (WNW) 15:54:33 .
DX 1 14 Dec 16:02:01 16:05:30 24° 296° (WNW) 16:08:58 434.975-435.025
ITUPSAT 1 14 Dec 16:09:02 16:13:37 45° 99° (E) 16:18:11 437.325
M-CUBED/EXP-1 PRIME 14 Dec 16:22:41 16:25:54 20° 264° (W) 16:29:15 437.505
DOVE 4 14 Dec 16:34:48 16:39:58 58° 72° (ENE) 16:44:58 437.250
AO-7 14 Dec 16:38:25 16:45:45 34° 264° (W) 16:53:09 .
nSIGHT-1 14 Dec 16:40:01 16:43:09 44° 14° (NNE) 16:46:15 .
CUBESAT XI-V 14 Dec 16:44:53 16:49:21 41° 98° (E) 16:53:48 437.345
XW-2B 14 Dec 16:46:54 16:48:29 12° 61° (ENE) 16:50:03 145.730 - 145.750
CUTE-I 14 Dec 16:49:01 16:52:40 19° 57° (ENE) 16:56:19 437.470
XW-2F 14 Dec 16:58:23 17:00:36 15° 63° (ENE) 17:02:50 145.980 - 146.000
YUBILEINY 14 Dec 16:58:47 17:05:16 24° 283° (WNW) 17:11:42 435.215
MOZHAYETS 4 14 Dec 16:59:18 17:03:37 40° 291° (WNW) 17:07:56
ITAMSAT 1 14 Dec 17:03:53 17:07:41 20° 269° (W) 17:11:29 435.822/435.867
SO-50 14 Dec 17:11:28 17:15:54 62° 311° (NW) 17:20:24 436.795
XW-2C 14 Dec 17:12:37 17:15:37 22° 66° (ENE) 17:18:39 145.795 - 145.815
KKS-1 14 Dec 17:14:10 17:16:55 16° 91° (E) 17:19:40 437.445
BEESAT 14 Dec 17:18:39 17:23:08 41° 292° (WNW) 17:27:35 436.000
ISS 14 Dec 17:21:20 17:24:35 60° 19° (NNE) 17:27:51 437.550
RS-15 14 Dec 17:22:30 17:34:41 60° 319° (NW) 17:46:39 29.354- 29.394
HO-68 14 Dec 17:27:34 17:33:26 28° 55° (NE) 17:39:17 435.675
CUTE 1.7 + AOD 2 14 Dec 17:42:33 17:45:04 16° 61° (ENE) 17:47:35 437.475
ITUPSAT 1 14 Dec 17:47:20 17:51:12 25° 297° (WNW) 17:55:03 437.325
LilacSat-2 14 Dec 17:47:58 17:51:44 59° 73° (ENE) 17:55:32 437.200
STARS 14 Dec 17:57:17 18:00:17 18° 92° (E) 18:03:16 437.465
O/OREOS (USA 219) 14 Dec 18:00:53 18:04:58 32° 55° (NE) 18:09:01 437.305
XW-2D 14 Dec 18:02:26 18:06:13 83° 76° (ENE) 18:10:03 145.860 - 145.880
NUDT-PHONESAT 14 Dec 18:07:28 18:11:06 62° 74° (ENE) 18:14:48 437.300
KAITUO 1B 14 Dec 18:10:57 18:14:41 73° 75° (ENE) 18:18:28 145.475/437.950
DOVE 4 14 Dec 18:13:58 18:17:56 21° 269° (W) 18:21:49 437.250
nSIGHT-1 14 Dec 18:16:16 18:19:23 48° 213° (SSW) 18:22:30 .
XW-2B 14 Dec 18:18:22 18:22:07 67° 259° (WSW) 18:25:57 145.730 - 145.750
CUBESAT XI-V 14 Dec 18:22:37 18:26:31 26° 296° (WNW) 18:30:24 437.345
CUTE-I 14 Dec 18:26:45 18:32:07 77° 256° (WSW) 18:37:31 437.470
CUBEBUG 2 14 Dec 18:28:24 18:31:51 25° 66° (ENE) 18:35:17 437.445
UWE-3 14 Dec 18:29:19 18:31:49 16° 62° (ENE) 18:34:20 435.000/436.395/437.385
XW-2F 14 Dec 18:30:37 18:34:18 50° 260° (W) 18:38:02 145.980 - 146.000
XW-2A 14 Dec 18:45:07 18:46:57 14° 64° (ENE) 18:48:49 145.665 - 145.685
XW-2C 14 Dec 18:46:14 18:49:38 31° 264° (W) 18:53:05 145.795 - 145.815
PCSat 14 Dec 18:46:57 18:51:19 26° 109° (ESE) 18:55:44 145.827
KKS-1 14 Dec 18:49:29 18:53:51 58° 288° (WNW) 18:58:11 437.445
SEEDS 14 Dec 18:53:28 18:57:31 46° 71° (ENE) 19:01:36 437.485
SO-50 14 Dec 18:54:30 18:57:16 16° 333° (NNW) 19:00:04 436.795
ZACube-1 14 Dec 18:54:31 18:57:00 16° 61° (ENE) 18:59:29 437.345
ISS 14 Dec 18:58:01 19:00:56 29° 218° (SW) 19:03:50 437.550
AAUSAT CUBESAT 2 14 Dec 19:12:49 19:16:35 33° 68° (ENE) 19:20:22 437.432
HO-68 14 Dec 19:13:23 19:20:34 73° 255° (WSW) 19:27:47 435.675
Oscar 11 14 Dec 19:14:06 19:16:44 16° 61° (ENE) 19:19:23 .
CUTE 1.7 + AOD 2 14 Dec 19:16:11 19:20:24 64° 259° (W) 19:24:41 437.475
LilacSat-2 14 Dec 19:24:46 19:26:23 12° 271° (W) 19:28:00 437.200
AO-73 14 Dec 19:27:14 19:30:45 28° 67° (ENE) 19:34:19 145.935
STARS 14 Dec 19:32:41 19:36:55 50° 289° (WNW) 19:41:07 437.465
RS-15 14 Dec 19:39:26 19:50:18 34° 351° (N) 20:00:50 29.354- 29.394
O/OREOS (USA 219) 14 Dec 19:40:22 19:44:20 31° 255° (WSW) 19:48:16 437.305
NUDT-PHONESAT 14 Dec 19:44:19 19:45:22 11° 272° (W) 19:46:25 437.300
UWE-3 14 Dec 20:03:47 20:07:52 57° 260° (W) 20:11:58 435.000/436.395/437.385
CUBEBUG 2 14 Dec 20:04:35 20:08:22 32° 264° (W) 20:12:08 437.445
BEESAT 3 14 Dec 20:09:17 20:11:54 17° 112° (ESE) 20:14:31 437.485
CUTE-I 14 Dec 20:11:35 20:13:03 11° 275° (W) 20:14:31 437.470
XW-2A 14 Dec 20:16:08 20:19:19 41° 261° (W) 20:22:33 145.665 - 145.685
DELFI C3 14 Dec 20:16:32 20:18:37 14° 61° (ENE) 20:20:41 145.870
STRAND 1 14 Dec 20:20:57 20:26:01 61° 102° (ESE) 20:31:02 437.568
FO-29 14 Dec 20:22:51 20:28:37 27° 89° (E) 20:33:50 435.910
Max Valier Satellite 14 Dec 20:27:28 20:28:30 11° 60° (ENE) 20:29:32 145.860
ZACube-1 14 Dec 20:28:46 20:32:50 58° 260° (W) 20:36:57 437.345
PCSat 14 Dec 20:29:02 20:34:22 57° 309° (NW) 20:39:44 145.827
SEEDS 14 Dec 20:30:27 20:33:26 19° 269° (W) 20:36:27 437.485
Oscar 11 14 Dec 20:48:07 20:52:24 63° 259° (W) 20:56:43 .
AAUSAT CUBESAT 2 14 Dec 20:48:37 20:52:04 25° 266° (W) 20:55:34 437.432
BEESAT 2 14 Dec 20:50:05 20:51:58 13° 110° (ESE) 20:53:52 435.950
EO-88 14 Dec 20:54:10 20:56:19 15° 63° (ENE) 20:58:28 145.990 - 145.960
AO-73 14 Dec 21:03:21 21:06:57 29° 265° (W) 21:10:35 145.935
HO-68 14 Dec 21:05:59 21:09:32 14° 275° (W) 21:13:06 435.675
TIGRISAT 14 Dec 21:34:29 21:36:24 13° 89° (E) 21:38:19 435.000
UNISAT 6 14 Dec 21:37:18 21:39:48 15° 90° (E) 21:42:19 437.425
BEESAT 3 14 Dec 21:45:05 21:49:01 58° 310° (NW) 21:52:58 437.485
DELFI C3 14 Dec 21:48:54 21:52:52 64° 259° (W) 21:56:51 145.870
RS-15 14 Dec 21:55:35 22:06:50 41° 25° (NNE) 22:17:32 29.354- 29.394
Max Valier Satellite 14 Dec 21:58:08 22:01:46 71° 258° (WSW) 22:05:27 145.860
STRAND 1 14 Dec 22:01:00 22:04:46 21° 300° (WNW) 22:08:32 437.568
FO-29 14 Dec 22:07:16 22:14:16 62° 291° (WNW) 22:20:24 435.910
PCSat 14 Dec 22:15:37 22:18:57 16° 331° (NNW) 22:22:18 145.827
SO-50 14 Dec 22:19:56 22:22:17 14° 23° (NNE) 22:24:39 436.795
AO-85 14 Dec 22:24:51 22:28:17 29° 116° (ESE) 22:31:53 145.980
BEESAT 2 14 Dec 22:25:06 22:29:07 75° 308° (NW) 22:33:11 435.950
EO-88 14 Dec 22:26:04 22:29:35 46° 261° (W) 22:33:08 145.990 - 145.960
ESTCUBE 1 14 Dec 22:55:42 22:59:57 42° 69° (ENE) 23:04:15 437.505/2401.250
LO-87 14 Dec 22:56:12 22:59:38 48° 73° (ENE) 23:03:04 145.935 - 145.965
TIGRISAT 14 Dec 23:09:15 23:13:34 72° 286° (WNW) 23:17:57 435.000
UNISAT 6 14 Dec 23:12:36 23:16:54 61° 287° (WNW) 23:21:14 437.425
AIST 2D 14 Dec 23:25:03 23:27:46 20° 93° (E) 23:30:27 435.315
BEESAT 3 14 Dec 23:25:29 23:27:23 13° 332° (NNW) 23:29:17 437.485
SPROUT 14 Dec 23:32:39 23:36:10 26° 65° (ENE) 23:39:40 437.525
PRISM 14 Dec 23:48:51 23:52:59 83° 283° (WNW) 23:57:03 437.425
EO-79 14 Dec 23:49:30 23:51:43 14° 90° (E) 23:53:57 145.935-145.965
FO-29 14 Dec 23:54:07 23:57:46 15° 314° (NW) 00:01:15 435.910
SO-50 14 Dec 23:59:25 00:03:53 45° 45° (NE) 00:08:25 436.795
AO-85 15 Dec 00:04:55 00:08:35 34° 318° (NW) 00:12:30 145.980
BEESAT 2 15 Dec 00:05:04 00:07:32 15° 329° (NNW) 00:09:59 435.950
RS-15 15 Dec 00:08:59 00:20:58 89° 56° (NE) 00:32:15 29.354- 29.394
POLYITAN 1 15 Dec 00:11:37 00:15:01 23° 94° (E) 00:18:26 437.675
VELOX 1 15 Dec 00:28:18 00:32:40 59° 72° (ENE) 00:37:04 145.980
LO-87 15 Dec 00:31:44 00:33:18 12° 270° (W) 00:34:53 145.935 - 145.965
ESTCUBE 1 15 Dec 00:33:20 00:36:55 23° 267° (W) 00:40:32 437.505/2401.250
QB50P2 15 Dec 00:36:52 00:40:58 47° 99° (E) 00:45:03 145.880/145.840
DUCHIFAT 1 15 Dec 00:41:46 00:45:40 36° 97° (E) 00:49:34 145.980
FALCONSAT 3 15 Dec 00:48:07 00:49:58 13° 178° (S) 00:51:50 435.103
AIST 2D 15 Dec 00:57:49 01:00:58 30° 291° (WNW) 01:04:05 435.315
SPROUT 15 Dec 01:08:02 01:11:54 34° 263° (W) 01:15:48 437.525
UKube-1 15 Dec 01:08:09 01:11:37 24° 64° (ENE) 01:15:05 .
NANOSAT C BR1 15 Dec 01:08:10 01:12:23 81° 104° (ESE) 01:16:35 145.865
BUGSAT 1 15 Dec 01:21:47 01:25:06 24° 95° (E) 01:28:24 437.445
DX 1 15 Dec 01:23:25 01:27:39 51° 71° (ENE) 01:31:55 434.975-435.025
EO-79 15 Dec 01:23:43 01:27:53 62° 287° (WNW) 01:32:03 145.935-145.965
Gurwin Techsat 1B 15 Dec 01:25:39 01:28:22 14° 87° (E) 01:31:04 435.225
PRISM 15 Dec 01:27:06 01:27:31 10° 304° (WNW) 01:27:56 437.425
50 SAT 15 Dec 01:35:35 01:38:44 67° 75° (ENE) 01:41:53 437.505
SO-50 15 Dec 01:40:10 01:44:12 29° 244° (WSW) 01:48:16 436.795
ITUPSAT 1 15 Dec 01:44:40 01:46:12 11° 54° (NE) 01:47:45 437.325
POLYITAN 1 15 Dec 01:47:01 01:50:54 36° 291° (WNW) 01:54:46 437.675
PCSat 15 Dec 01:48:12 01:50:55 14° 24° (NNE) 01:53:37 145.827
AO-85 15 Dec 01:49:20 01:50:20 11° 341° (NNW) 01:51:19 145.980
AO-91 15 Dec 01:53:23 01:56:12 22° 94° (E) 01:58:56 145.960
VELOX 1 15 Dec 02:06:42 02:09:29 16° 270° (W) 02:12:16 145.980
YUBILEINY 15 Dec 02:12:06 02:17:59 20° 75° (ENE) 02:23:54 435.215
QB50P2 15 Dec 02:13:25 02:16:26 19° 297° (WNW) 02:19:28 145.880/145.840
DUCHIFAT 1 15 Dec 02:17:48 02:21:09 24° 295° (WNW) 02:24:30 145.980
Oscar 19 15 Dec 02:19:32 02:24:38 54° 100° (E) 02:29:44 437.125/150
RS-15 15 Dec 02:22:41 02:31:49 28° 258° (WSW) 02:40:39 29.354- 29.394
MOZHAYETS 4 15 Dec 02:27:06 02:31:11 33° 67° (ENE) 02:35:17
FALCONSAT 3 15 Dec 02:27:25 02:28:11 11° 193° (SSW) 02:28:58 435.103
UKube-1 15 Dec 02:43:23 02:47:26 39° 262° (W) 02:51:30 .
AO-7 15 Dec 02:44:34 02:48:57 15° 85° (E) 02:53:18 .
NANOSAT C BR1 15 Dec 02:45:43 02:47:29 12° 301° (WNW) 02:49:15 145.865
BEESAT 15 Dec 02:50:14 02:54:42 42° 68° (ENE) 02:59:10 436.000
BUGSAT 1 15 Dec 02:56:52 03:00:30 32° 292° (WNW) 03:04:08 437.445
DX 1 15 Dec 03:01:07 03:04:08 18° 268° (W) 03:07:09 434.975-435.025
Gurwin Techsat 1B 15 Dec 03:03:40 03:09:01 87° 286° (WNW) 03:14:21 435.225
ITUPSAT 1 15 Dec 03:18:28 03:23:12 74° 73° (ENE) 03:27:58 437.325
AO-91 15 Dec 03:29:50 03:32:41 23° 294° (WNW) 03:35:25 145.960
PCSat 15 Dec 03:30:35 03:35:47 43° 48° (NE) 03:40:57 145.827
ITAMSAT 1 15 Dec 03:33:35 03:36:47 16° 89° (E) 03:39:59 435.822/435.867
CUBESAT XI-V 15 Dec 03:50:42 03:55:16 56° 72° (ENE) 03:59:53 437.345
M-CUBED/EXP-1 PRIME 15 Dec 03:57:04 04:00:45 24° 98° (E) 04:04:15 437.505
Oscar 19 15 Dec 03:59:30 04:03:37 24° 299° (WNW) 04:07:44 437.125/150
MOZHAYETS 4 15 Dec 04:04:23 04:08:21 29° 265° (W) 04:12:21
YUBILEINY 15 Dec 04:04:37 04:13:28 86° 97° (E) 04:22:22 435.215
KKS-1 15 Dec 04:14:43 04:18:14 23° 63° (ENE) 04:21:44 437.445
BEESAT 3 15 Dec 04:21:36 04:25:08 30° 42° (NE) 04:28:36 437.485
BEESAT 15 Dec 04:28:41 04:32:37 25° 266° (W) 04:36:32 436.000
DOVE 4 15 Dec 04:33:33 04:34:37 11° 85° (E) 04:35:42 437.250
AO-7 15 Dec 04:34:51 04:43:15 70° 106° (ESE) 04:51:35 .
Gurwin Techsat 1B 15 Dec 04:45:11 04:48:13 15° 305° (NW) 04:51:13 435.225
STARS 15 Dec 04:56:26 04:59:59 25° 64° (ENE) 05:03:32 437.465
ITUPSAT 1 15 Dec 04:59:02 05:01:34 14° 271° (W) 05:04:07 437.325
BEESAT 2 15 Dec 05:02:32 05:05:57 25° 40° (NE) 05:09:20 435.950
ITAMSAT 1 15 Dec 05:11:37 05:16:49 74° 288° (WNW) 05:21:57 435.822/435.867
AO-85 15 Dec 05:12:05 05:15:14 18° 31° (NNE) 05:18:30 145.980
PCSat 15 Dec 05:14:12 05:19:06 35° 248° (WSW) 05:23:58 145.827
CUBESAT XI-V 15 Dec 05:29:46 05:33:00 18° 270° (W) 05:36:15 437.345
M-CUBED/EXP-1 PRIME 15 Dec 05:30:58 05:35:17 42° 297° (WNW) 05:39:22 437.505
XW-2B 15 Dec 05:50:00 05:50:50 11° 88° (E) 05:51:40 145.730 - 145.750
KKS-1 15 Dec 05:50:17 05:54:32 43° 261° (W) 05:58:49 437.445
BEESAT 3 15 Dec 05:59:06 06:02:41 34° 242° (WSW) 06:06:13 437.485
XW-2F 15 Dec 06:00:40 06:02:37 13° 90° (E) 06:04:33 145.980 - 146.000
STRAND 1 15 Dec 06:02:48 06:06:17 19° 59° (ENE) 06:09:47 437.568
YUBILEINY 15 Dec 06:04:34 06:11:30 25° 301° (WNW) 06:18:29 435.215
DOVE 4 15 Dec 06:08:29 06:13:04 84° 285° (WNW) 06:17:22 437.250
XW-2C 15 Dec 06:15:35 06:18:35 21° 93° (E) 06:21:33 145.795 - 145.815
AO-7 15 Dec 06:28:14 06:35:28 34° 307° (NW) 06:42:42 .
STARS 15 Dec 06:32:01 06:36:08 39° 262° (W) 06:40:15 437.465
FO-29 15 Dec 06:37:42 06:43:29 23° 54° (NE) 06:49:13 435.910
HO-68 15 Dec 06:38:55 06:43:48 19° 88° (E) 06:48:38 435.675
BEESAT 2 15 Dec 06:39:59 06:43:52 45° 239° (WSW) 06:47:40 435.950
CUTE-I 15 Dec 06:40:52 06:45:42 34° 96° (E) 06:50:29 437.470
AO-85 15 Dec 06:51:40 06:56:23 71° 51° (NE) 07:01:27 145.980
LilacSat-2 15 Dec 06:52:02 06:55:54 58° 100° (E) 06:59:43 437.200
ITAMSAT 1 15 Dec 06:53:11 06:55:23 13° 307° (NW) 06:57:36 435.822/435.867
CUTE 1.7 + AOD 2 15 Dec 06:58:39 07:01:39 18° 91° (E) 07:04:38 437.475
XW-2D 15 Dec 07:05:40 07:09:33 81° 103° (ESE) 07:13:23 145.860 - 145.880
NUDT-PHONESAT 15 Dec 07:07:55 07:11:37 55° 100° (E) 07:15:18 437.300
KAITUO 1B 15 Dec 07:12:33 07:16:22 67° 101° (E) 07:20:08 145.475/437.950
NO-84 15 Dec 07:15:24 07:18:08 31° 136° (SE) 07:21:02 435.350 FM
XW-2B 15 Dec 07:21:36 07:25:27 70° 286° (WNW) 07:29:17 145.730 - 145.750
XW-2F 15 Dec 07:33:17 07:37:02 54° 287° (WNW) 07:40:46 145.980 - 146.000
STRAND 1 15 Dec 07:39:50 07:44:56 71° 257° (WSW) 07:50:04 437.568
DOVE 4 15 Dec 07:48:30 07:49:55 11° 305° (NW) 07:51:18 437.250
XW-2C 15 Dec 07:49:19 07:52:50 33° 291° (WNW) 07:56:18 145.795 - 145.815
UWE-3 15 Dec 07:50:10 07:53:34 22° 93° (E) 07:57:00 435.000/436.395/437.385
CUBEBUG 2 15 Dec 07:51:16 07:55:15 37° 97° (E) 07:59:19 437.445
SEEDS 15 Dec 08:09:21 08:13:35 60° 101° (E) 08:17:45 437.485
ZACube-1 15 Dec 08:13:57 08:17:19 21° 93° (E) 08:20:44 437.345
O/OREOS (USA 219) 15 Dec 08:17:07 08:20:28 20° 102° (ESE) 08:23:49 437.305
FO-29 15 Dec 08:19:41 08:27:30 84° 73° (ENE) 08:35:21 435.910
CUTE-I 15 Dec 08:20:52 08:25:46 38° 294° (WNW) 08:30:38 437.470
AO-7 15 Dec 08:24:09 08:25:42 11° 331° (NNW) 08:27:16 .
HO-68 15 Dec 08:25:14 08:32:27 89° 288° (WNW) 08:39:37 435.675
AAUSAT CUBESAT 2 15 Dec 08:26:35 08:30:33 40° 98° (E) 08:34:27 437.432
LilacSat-2 15 Dec 08:27:36 08:29:43 14° 298° (WNW) 08:31:47 437.200
Oscar 11 15 Dec 08:32:48 08:36:00 20° 92° (E) 08:39:11 .
AO-85 15 Dec 08:33:00 08:36:26 19° 248° (WSW) 08:40:00 145.980
CUTE 1.7 + AOD 2 15 Dec 08:33:35 08:37:44 48° 289° (WNW) 08:41:51 437.475
TIGRISAT 15 Dec 08:35:57 08:38:39 17° 62° (ENE) 08:41:22 435.000
UNISAT 6 15 Dec 08:39:00 08:42:03 19° 63° (ENE) 08:45:05 437.425
XW-2D 15 Dec 08:42:10 08:43:06 11° 301° (WNW) 08:44:01 145.860 - 145.880
NUDT-PHONESAT 15 Dec 08:43:03 08:45:01 14° 298° (WNW) 08:47:00 437.300
AO-73 15 Dec 08:47:01 08:51:08 40° 98° (E) 08:55:18 145.935
KAITUO 1B 15 Dec 08:48:15 08:49:48 12° 299° (WNW) 08:51:21 145.475/437.950
NO-84 15 Dec 08:52:17 08:55:17 40° 337° (NNW) 08:58:32 435.350 FM
XW-2A 15 Dec 09:06:44 09:10:09 63° 286° (WNW) 09:13:32 145.665 - 145.685
PRISM 15 Dec 09:08:02 09:09:50 13° 58° (ENE) 09:11:38 437.425
DELFI C3 15 Dec 09:24:02 09:25:53 13° 89° (E) 09:27:43 145.870
UWE-3 15 Dec 09:26:08 09:30:10 40° 290° (WNW) 09:34:16 435.000/436.395/437.385
CUBEBUG 2 15 Dec 09:28:19 09:31:42 24° 294° (WNW) 09:35:09 437.445
SEEDS 15 Dec 09:46:09 09:48:48 16° 298° (WNW) 09:51:25 437.485
ZACube-1 15 Dec 09:49:40 09:53:46 42° 290° (WNW) 09:57:56 437.345
EO-88 15 Dec 09:52:56 09:54:23 12° 89° (E) 09:55:51 145.990 - 145.960
O/OREOS (USA 219) 15 Dec 09:55:04 09:59:31 50° 300° (WNW) 10:04:00 437.305
AAUSAT CUBESAT 2 15 Dec 10:02:33 10:05:45 22° 296° (WNW) 10:08:55 437.432
AIST 2D 15 Dec 10:03:01 10:04:41 13° 63° (ENE) 10:06:21 435.315
FO-29 15 Dec 10:07:17 10:13:17 24° 273° (W) 10:19:21 435.910
Oscar 11 15 Dec 10:08:11 10:12:22 46° 289° (WNW) 10:16:32 .
TIGRISAT 15 Dec 10:10:44 10:14:57 57° 259° (W) 10:19:09 435.000
HO-68 15 Dec 10:14:05 10:19:18 22° 309° (NW) 10:24:30 435.675
UNISAT 6 15 Dec 10:14:18 10:18:27 48° 260° (W) 10:22:36 437.425
AO-73 15 Dec 10:23:42 10:27:10 24° 295° (WNW) 10:30:40 145.935
NO-84 15 Dec 10:30:29 10:33:12 22° 358° (N) 10:36:05 435.350 FM
NANOSAT C BR1 15 Dec 10:30:49 10:31:48 11° 57° (ENE) 10:32:48 145.865
PRISM 15 Dec 10:40:20 10:44:30 80° 257° (WSW) 10:48:41 437.425
EO-79 15 Dec 10:44:44 10:47:22 17° 61° (ENE) 10:50:02 145.935-145.965
DELFI C3 15 Dec 10:57:06 11:01:01 59° 287° (WNW) 11:04:52 145.870
Max Valier Satellite 15 Dec 10:58:20 11:02:05 79° 282° (WNW) 11:05:48 145.860
POLYITAN 1 15 Dec 11:06:55 11:10:24 26° 66° (ENE) 11:13:53 437.675
EO-88 15 Dec 11:24:45 11:28:22 55° 287° (WNW) 11:31:57 145.990 - 145.960
QB50P2 15 Dec 11:31:58 11:36:02 51° 71° (ENE) 11:40:07 145.880/145.840
AIST 2D 15 Dec 11:34:00 11:37:25 52° 260° (W) 11:40:54 435.315
DUCHIFAT 1 15 Dec 11:36:06 11:39:59 39° 69° (ENE) 11:43:52 145.980
ISS 15 Dec 11:40:24 11:42:33 16° 136° (SE) 11:44:42 437.550
